Location: *
(53.9002°N, 27.5624°E)
Time: 18:56:59
(UTC+00:00)

CZ-2D R/B - Pass Details

Date: 12 November 2019
Orbit: 521 x 539 km, 97.4° (Epoch: 07 December)

Event Time Altitude Azimuth Distance (km) Brightness Sun altitude
Exits shadow 17:19:33 41° 244° (WSW) 790 4.4 -26.8°
Maximum altitude 17:19:57 43° 262° (W) 770 4.4 -26.9°
Drops below altitude 10° 17:23:42 10° 335° (NNW) 1,811 6.3 -27.4°
Sets 17:25:55 0° 342° (NNW) 2,706 7.2 -27.8°
